Weather History for Mount Pleasant, MI

Change the Weather History Date:

Monday, October 21, 2013

  Actual Average (KAMN) Record (KAMN)
Temperature  
Mean Temperature 44 °F -  
Max Temperature 51 °F 56 °F 84 °F (1953)
Min Temperature 38 °F 36 °F 22 °F (1974)
Degree Days  
Heating Degree Days 20    
Moisture  
Dew Point 39 °F    
Average Humidity 73    
Maximum Humidity 90    
Minimum Humidity 56    
Precipitation  
Precipitation 0.00 in - - ()
Sea Level Pressure  
Sea Level Pressure 29.77 in    
Wind  
Wind Speed 9 mph (SW)    
Max Wind Speed 17 mph    
Max Gust Speed 24 mph    
Visibility 10 miles    
Events      
Averages and records for this station are not official NWS values.
T = Trace of Precipitation, MM = Missing Value Source: NWS Daily Summary

Daily Weather History Graph

Daily Weather History Graph

Search for Another Location

Airport:

Trip Planner

Search our weather history database for the weather conditions in past years. The results will help you decide how hot, cold, wet, or windy it might be!

Date:

Astronomy

Oct. 21, 2013 Rise Set
Actual Time 8:00 AM EDT 6:45 PM EDT
Civil Twilight 7:31 AM EDT 7:14 PM EDT
Nautical Twilight 6:58 AM EDT 7:48 PM EDT
Astronomical Twilight 6:25 AM EDT 8:21 PM EDT
Moon 8:33 PM EDT (10/21) 10:39 AM EDT (10/21)
Length of Visible Light 11h 42m
Length of Day
10h 44m
Waning Gibbous, 93% of the Moon is Illuminated
Oct 21
Waning Gibbous
Oct 26
Last Quarter
Nov 3
New
Nov 10
First Quarter
Nov 17
Full

Hourly Weather History & Observations

Time (EDT) Temp. Windchill Dew Point Humidity Pressure Visibility Wind Dir Wind Speed Gust Speed Precip Events Conditions
12:16 AM 50.4 °F - 46.2 °F 86% 29.72 in 10.0 mi SSW 8.1 mph - N/A   Overcast
12:35 AM 50.0 °F - 46.2 °F 87% 29.72 in 10.0 mi South 8.1 mph - N/A   Mostly Cloudy
12:56 AM 49.6 °F - 46.4 °F 89% 29.73 in 10.0 mi South 8.1 mph - N/A   Clear
1:16 AM 49.5 °F - 46.6 °F 90% 29.73 in 10.0 mi SSW 6.9 mph - N/A   Scattered Clouds
1:35 AM 50.0 °F - 47.1 °F 90% 29.73 in 10.0 mi South 6.9 mph - N/A   Mostly Cloudy
1:56 AM 50.2 °F - 47.3 °F 90% 29.73 in 10.0 mi South 4.6 mph - N/A   Overcast
2:16 AM 50.5 °F - 47.8 °F 90% 29.74 in 10.0 mi SSW 8.1 mph - N/A   Overcast
2:35 AM 51.1 °F - 48.4 °F 90% 29.73 in 10.0 mi SSW 9.2 mph - N/A   Mostly Cloudy
2:56 AM 51.6 °F - 48.4 °F 89% 29.73 in 10.0 mi SSW 5.8 mph - N/A   Mostly Cloudy
3:16 AM 51.8 °F - 48.2 °F 88% 29.73 in 10.0 mi SSW 9.2 mph - N/A   Mostly Cloudy
3:35 AM 51.8 °F - 47.7 °F 86% 29.73 in 10.0 mi SSW 8.1 mph - N/A   Mostly Cloudy
3:56 AM 51.8 °F - 47.5 °F 85% 29.73 in 10.0 mi SSW 5.8 mph - N/A   Overcast
4:16 AM 51.3 °F - 46.8 °F 85% 29.72 in 10.0 mi South 6.9 mph - N/A   Mostly Cloudy
4:35 AM 51.3 °F - 46.9 °F 85% 29.73 in 10.0 mi South 5.8 mph - N/A   Mostly Cloudy
4:56 AM 50.9 °F - 47.3 °F 87% 29.73 in 10.0 mi South 8.1 mph - N/A   Overcast
5:16 AM 51.1 °F - 47.5 °F 87% 29.73 in 10.0 mi South 9.2 mph - N/A   Overcast
5:36 AM 51.1 °F - 47.3 °F 87% 29.73 in 10.0 mi South 8.1 mph - N/A   Overcast
5:56 AM 51.1 °F - 47.3 °F 87% 29.73 in 10.0 mi SSW 10.4 mph 16.1 mph N/A   Overcast
6:16 AM 51.3 °F - 47.5 °F 87% 29.73 in 10.0 mi SSW 11.5 mph - N/A   Overcast
6:36 AM 51.1 °F - 47.5 °F 87% 29.74 in 10.0 mi SSW 6.9 mph - N/A   Overcast
6:56 AM 51.1 °F - 47.5 °F 87% 29.74 in 10.0 mi SW 4.6 mph - N/A   Overcast
7:15 AM 51.1 °F - 47.3 °F 87% 29.75 in 10.0 mi SW 5.8 mph - N/A   Overcast
7:36 AM 51.1 °F - 45.9 °F 82% 29.74 in 10.0 mi SW 9.2 mph - N/A   Overcast
7:56 AM 50.9 °F - 45.3 °F 81% 29.75 in 10.0 mi SW 10.4 mph - N/A   Overcast
8:16 AM 50.9 °F - 45.1 °F 81% 29.75 in 10.0 mi SW 5.8 mph - N/A   Overcast
8:36 AM 50.7 °F - 44.8 °F 80% 29.76 in 10.0 mi SW 6.9 mph - N/A   Overcast
8:56 AM 50.7 °F - 44.1 °F 78% 29.76 in 10.0 mi SW 13.8 mph 19.6 mph N/A   Overcast
9:15 AM 50.9 °F - 43.7 °F 76% 29.76 in 10.0 mi WSW 9.2 mph 17.3 mph N/A   Overcast
9:36 AM 50.5 °F - 42.1 °F 73% 29.77 in 10.0 mi SW 11.5 mph 20.7 mph N/A   Overcast
9:56 AM 50.4 °F - 41.4 °F 71% 29.76 in 10.0 mi WSW 12.7 mph 16.1 mph N/A   Overcast
10:16 AM 50.9 °F - 41.4 °F 70% 29.77 in 10.0 mi WSW 17.3 mph 21.9 mph N/A   Overcast
10:36 AM 48.7 °F - 41.0 °F 75% 29.78 in 10.0 mi West 12.7 mph 18.4 mph N/A   Overcast
10:56 AM 47.3 °F - 39.4 °F 74% 29.79 in 10.0 mi West 12.7 mph 18.4 mph N/A   Overcast
11:15 AM 47.7 °F - 39.2 °F 72% 29.79 in 10.0 mi West 10.4 mph 18.4 mph N/A   Overcast
11:36 AM 48.0 °F - 38.7 °F 70% 29.79 in 10.0 mi West 15.0 mph 21.9 mph N/A   Overcast
11:56 AM 48.6 °F - 37.8 °F 66% 29.79 in 10.0 mi WSW 13.8 mph - N/A   Overcast
12:15 PM 47.8 °F - 37.8 °F 68% 29.80 in 10.0 mi West 8.1 mph - N/A   Overcast
12:36 PM 46.6 °F - 36.5 °F 68% 29.80 in 10.0 mi West 10.4 mph 17.3 mph N/A   Overcast
12:56 PM 46.9 °F - 36.1 °F 66% 29.80 in 10.0 mi West 12.7 mph 18.4 mph N/A   Overcast
1:15 PM 47.1 °F - 36.0 °F 65% 29.80 in 10.0 mi WSW 11.5 mph 17.3 mph N/A   Overcast
1:36 PM 47.3 °F - 36.1 °F 65% 29.80 in 10.0 mi WSW 8.1 mph 16.1 mph N/A   Overcast
1:56 PM 47.1 °F - 35.8 °F 65% 29.79 in 10.0 mi West 10.4 mph - N/A   Overcast
2:15 PM 47.5 °F - 34.7 °F 61% 29.78 in 10.0 mi WSW 12.7 mph 18.4 mph N/A   Overcast
2:36 PM 46.9 °F - 35.6 °F 65% 29.78 in 10.0 mi WSW 8.1 mph - N/A   Overcast
2:56 PM 46.4 °F 41.1 °F 34.9 °F 64% 29.78 in 10.0 mi West 11.5 mph - N/A   Overcast
3:15 PM 46.9 °F - 35.2 °F 64% 29.78 in 10.0 mi WSW 11.5 mph 16.1 mph N/A   Overcast
3:36 PM 46.2 °F 41.2 °F 34.9 °F 65% 29.78 in 10.0 mi WSW 10.4 mph - N/A   Overcast
3:56 PM 46.6 °F - 34.5 °F 63% 29.79 in 10.0 mi WSW 11.5 mph - N/A   Overcast
4:15 PM 46.6 °F - 32.9 °F 59% 29.79 in 10.0 mi WSW 15.0 mph 20.7 mph N/A   Overcast
4:36 PM 46.4 °F 40.4 °F 31.8 °F 57% 29.79 in 10.0 mi WSW 13.8 mph 20.7 mph N/A   Overcast
4:56 PM 46.4 °F 40.7 °F 32.0 °F 57% 29.79 in 10.0 mi WSW 12.7 mph 17.3 mph N/A   Overcast
5:16 PM 45.5 °F 38.6 °F 32.0 °F 59% 29.80 in 10.0 mi WSW 16.1 mph 21.9 mph N/A   Overcast
5:36 PM 44.8 °F 39.9 °F 31.6 °F 60% 29.80 in 10.0 mi WSW 9.2 mph 20.7 mph N/A   Overcast
5:56 PM 44.6 °F 39.2 °F 30.9 °F 59% 29.80 in 10.0 mi WSW 10.4 mph 18.4 mph N/A   Overcast
6:15 PM 44.2 °F 37.3 °F 31.5 °F 61% 29.80 in 10.0 mi WSW 15.0 mph 19.6 mph N/A   Overcast
6:36 PM 43.9 °F 37.9 °F 30.6 °F 59% 29.81 in 10.0 mi WSW 11.5 mph 17.3 mph N/A   Overcast
6:56 PM 43.7 °F 37.7 °F 30.4 °F 59% 29.81 in 10.0 mi WSW 11.5 mph 18.4 mph N/A   Overcast
7:15 PM 43.2 °F 36.6 °F 30.7 °F 62% 29.81 in 10.0 mi WSW 12.7 mph 16.1 mph N/A   Overcast
7:36 PM 43.2 °F 37.9 °F 30.6 °F 61% 29.81 in 10.0 mi SW 9.2 mph - N/A   Overcast
7:56 PM 42.8 °F 38.0 °F 30.6 °F 62% 29.81 in 10.0 mi SW 8.1 mph - N/A   Overcast
8:15 PM 42.8 °F 36.6 °F 30.7 °F 62% 29.82 in 10.0 mi West 11.5 mph 21.9 mph N/A   Overcast
8:36 PM 41.4 °F 35.7 °F 32.0 °F 69% 29.82 in 10.0 mi West 9.2 mph - N/A   Overcast
8:56 PM 41.2 °F 35.0 °F 32.0 °F 70% 29.81 in 10.0 mi WSW 10.4 mph - N/A   Overcast
9:15 PM 41.0 °F 34.7 °F 32.0 °F 70% 29.81 in 10.0 mi WSW 10.4 mph - N/A   Overcast
9:36 PM 41.0 °F 35.8 °F 32.0 °F 70% 29.81 in 10.0 mi West 8.1 mph - N/A   Overcast
9:56 PM 40.6 °F 33.8 °F 30.2 °F 66% 29.82 in 10.0 mi West 11.5 mph 21.9 mph N/A   Overcast
10:16 PM 40.3 °F 34.4 °F 30.2 °F 67% 29.82 in 10.0 mi West 9.2 mph 18.4 mph N/A   Overcast
10:36 PM 39.7 °F 31.2 °F 26.4 °F 59% 29.83 in 10.0 mi West 16.1 mph 24.2 mph N/A   Overcast
10:55 PM 39.4 °F 31.4 °F 25.2 °F 57% 29.83 in 10.0 mi WSW 13.8 mph 18.4 mph N/A   Overcast
11:16 PM 39.2 °F 33.0 °F 24.8 °F 56% 29.83 in 10.0 mi West 9.2 mph 21.9 mph N/A   Overcast
11:36 PM 38.3 °F 31.4 °F 24.4 °F 57% 29.83 in 10.0 mi West 10.4 mph 18.4 mph N/A   Overcast
11:55 PM 38.3 °F 30.9 °F 24.4 °F 57% 29.83 in 10.0 mi West 11.5 mph 21.9 mph N/A   Overcast